This demonstration page uses our WeatherBlox Daily Observations layout. Learn more.

Left ArrowRight Arrow

Hourly Observations for March 16, 2019

Temp ( °F °C ) Dew Point ( °F °C ) Humidity (%) Winds ( mph kmh ) Pressure ( in mb ) Visibility ( mi km ) Precip ( " mm )
12:52 am 00:52 Clear 30 -1.1 24 -4.4 79 79 Calm 30.37 1029 10 16 0.00 0.00
1:52 am 01:52 Clear 29 -1.7 24 -4.4 82 82 Calm 30.37 1028 10 16 0.00 0.00
2:52 am 02:52 Clear 26 -3.3 22 -5.6 84 84 SE 3 6 30.37 1029 10 16 0.00 0.00
3:52 am 03:52 Clear 26 -3.3 23 -5 88 88 SSE 6 9 30.37 1028 10 16 0.00 0.00
4:52 am 04:52 Clear 28 -2.2 24 -4.4 85 85 SSE 6 9 30.36 1028 10 16 0.00 0.00
5:52 am 05:52 Clear 26 -3.3 23 -5 88 88 SSE 8 13 30.37 1028 10 16 0.00 0.00
6:52 am 06:52 Partly Cloudy 29 -1.7 25 -3.9 85 85 SE 8 13 30.37 1028 10 16 0.00 0.00
7:52 am 07:52 Mostly Cloudy 30 -1.1 25 -3.9 82 82 S 9 15 30.36 1028 10 16 0.00 0.00
8:52 am 08:52 Mostly Cloudy 31 -0.6 26 -3.3 82 82 SSE 8 13 30.36 1028 10 16 0.00 0.00
9:52 am 09:52 Mostly Cloudy 36 2.2 27 -2.8 70 70 SSE 8 13 30.36 1028 10 16 0.00 0.00
10:52 am 10:52 Mostly Cloudy 39 3.9 26 -3.3 60 60 S 6 9 30.36 1028 10 16 0.00 0.00
11:52 am 11:52 Partly Cloudy 46 7.8 28 -2.2 50 50 WSW 6 9 30.35 1028 10 16 0.00 0.00
12:52 pm 12:52 Partly Cloudy 48 8.9 31 -0.6 52 52 N 5 7 30.33 1027 10 16 0.00 0.00
1:52 pm 13:52 Partly Cloudy 51 10.6 31 -0.6 46 46 NNW 10 17 30.32 1027 10 16 0.00 0.00
2:52 pm 14:52 Partly Cloudy 53 11.7 30 -1.1 41 41 NW 13 20 30.29 1026 10 16 0.00 0.00
3:52 pm 15:52 Mostly Cloudy 52 11.1 30 -1.1 43 43 NW 12 19 30.28 1025 10 16 0.00 0.00
4:52 pm 16:52 Mostly Cloudy 50 10 29 -1.7 44 44 NW 14 22 30.28 1026 10 16 0.00 0.00
5:52 pm 17:52 Mostly Cloudy 47 8.3 32 0 56 56 NNW 14 22 30.29 1026 10 16 0.00 0.00
6:52 pm 18:52 Partly Cloudy 45 7.2 30 -1.1 56 56 NNW 18 30 30.30 1026 10 16 0.00 0.00
7:52 pm 19:52 Partly Cloudy 41 5 30 -1.1 65 65 NNW 14 22 30.32 1027 10 16 0.00 0.00
8:52 pm 20:52 Clear 39 3.9 31 -0.6 73 73 N 15 24 30.35 1028 10 16 0.00 0.00
9:52 pm 21:52 Clear 36 2.2 29 -1.7 76 76 N 15 24 30.37 1028 10 16 0.00 0.00
10:52 pm 22:52 Partly Cloudy 35 1.7 27 -2.8 72 72 NNW 15 24 30.37 1029 10 16 0.00 0.00
11:13 pm 23:13 Mostly Cloudy 35 1.7 28 -2.2 76 76 NNW 12 19 30.40 1029 10 16 0.00 0.00
11:52 pm 23:52 Mostly Cloudy 34 1.1 27 -2.8 76 76 NNW 13 20 30.38 1029 10 16 0.00 0.00

Powered by AerisWeather